Schedule Details


Flight Number: CTN490
Departure: Krk Island (LDRI) at 09:30
Arrival: Heathrow (EGLL) at 11:00
Route: NAKIT UN606 BABAG N606 BADOP P66 SOTOV UP66 KPT UL608 TEDGO UZ210 LAMGO UM150 KRH UZ210 LIRSU UL608 BUB UY28 HELEN UL179 COA L179 SASKI L608 LOGAN

Weather Information
LDRI 201000Z 04020G37KT 350V080 9999 FEW050 10/M07 Q1029
EGLL 200950Z AUTO 26008KT 9999 OVC011 10/08 Q1033 NOSIG
Schedule Frequency

Route Map